TimeCDT,TemperatureF,Dew PointF,Humidity,Sea Level PressureIn,VisibilityMPH,Wind Direction,Wind SpeedMPH,Gust SpeedMPH,PrecipitationIn,Events,Conditions,WindDirDegrees,DateUTC
12:53 AM,62.1,59.0,90,30.04,10.0,North,6.9,-,N/A,,Overcast,350,2013-08-11 05:53:00
1:53 AM,60.1,57.9,93,30.04,10.0,Calm,Calm,-,N/A,,Overcast,0,2013-08-11 06:53:00
2:53 AM,60.1,57.9,93,30.05,10.0,Calm,Calm,-,N/A,,Overcast,0,2013-08-11 07:53:00
3:53 AM,57.9,57.0,97,30.05,10.0,NW,5.8,-,N/A,,Overcast,310,2013-08-11 08:53:00
4:01 AM,57.2,57.2,100,30.05,10.0,NNW,5.8,-,N/A,,Overcast,330,2013-08-11 09:01:00
4:12 AM,57.2,57.2,100,30.05,10.0,NNW,6.9,-,N/A,,Overcast,330,2013-08-11 09:12:00
4:53 AM,57.9,57.0,97,30.06,7.0,North,9.2,-,N/A,,Overcast,350,2013-08-11 09:53:00
5:43 AM,59.0,57.2,94,30.07,10.0,North,6.9,-,N/A,,Overcast,350,2013-08-11 10:43:00
5:53 AM,59.0,55.9,90,30.07,10.0,North,6.9,-,N/A,,Overcast,350,2013-08-11 10:53:00
6:53 AM,57.9,55.9,93,30.09,10.0,North,9.2,-,N/A,,Overcast,350,2013-08-11 11:53:00
7:53 AM,57.9,55.0,90,30.08,10.0,North,11.5,-,N/A,,Overcast,10,2013-08-11 12:53:00
8:53 AM,60.1,55.9,86,30.09,10.0,North,8.1,-,N/A,,Mostly Cloudy,360,2013-08-11 13:53:00
9:18 AM,62.6,55.4,77,30.09,10.0,NNE,8.1,-,N/A,,Mostly Cloudy,20,2013-08-11 14:18:00
9:53 AM,64.9,55.9,73,30.08,10.0,North,8.1,-,N/A,,Scattered Clouds,10,2013-08-11 14:53:00
10:53 AM,66.9,54.0,63,30.08,10.0,North,10.4,-,N/A,,Scattered Clouds,350,2013-08-11 15:53:00
11:53 AM,69.1,54.0,58,30.08,10.0,North,9.2,-,N/A,,Scattered Clouds,360,2013-08-11 16:53:00
12:53 PM,71.1,54.0,55,30.08,10.0,North,6.9,-,N/A,,Mostly Cloudy,360,2013-08-11 17:53:00
1:53 PM,73.0,54.0,51,30.06,10.0,East,3.5,-,N/A,,Scattered Clouds,80,2013-08-11 18:53:00
2:53 PM,71.1,53.1,53,30.06,10.0,NE,5.8,-,N/A,,Mostly Cloudy,40,2013-08-11 19:53:00
3:53 PM,75.0,52.0,44,30.05,10.0,Variable,3.5,-,N/A,,Mostly Cloudy,0,2013-08-11 20:53:00
4:53 PM,75.0,52.0,44,30.04,10.0,North,3.5,-,N/A,,Mostly Cloudy,10,2013-08-11 21:53:00
5:53 PM,75.0,52.0,44,30.02,10.0,WNW,4.6,-,N/A,,Scattered Clouds,290,2013-08-11 22:53:00
6:53 PM,75.0,52.0,44,30.01,10.0,North,6.9,-,N/A,,Partly Cloudy,10,2013-08-11 23:53:00
7:53 PM,72.0,54.0,53,30.01,10.0,NNW,4.6,-,N/A,,Partly Cloudy,340,2013-08-12 00:53:00
8:53 PM,64.9,54.0,68,30.02,10.0,Calm,Calm,-,N/A,,Clear,0,2013-08-12 01:53:00
9:53 PM,59.0,53.1,81,30.03,10.0,Calm,Calm,-,N/A,,Clear,0,2013-08-12 02:53:00
10:53 PM,57.0,52.0,83,30.03,10.0,West,3.5,-,N/A,,Clear,280,2013-08-12 03:53:00
11:53 PM,55.0,51.1,86,30.03,10.0,West,3.5,-,N/A,,Clear,260,2013-08-12 04:53:00